Peru, IN

5:38 PM EDT on May 25, 2017 (GMT -0400)
Grissom Air Reserve Base

Weather History for KGUS - January, 2013

Change the Weather History Date:

Monday, January 14, 2013

  Actual Average Record
Temperature  
Mean Temperature 18 °F -  
Max Temperature 21 °F 28 °F 48 °F (2002)
Min Temperature 14 °F 16 °F -2 °F (1997)
Degree Days  
Heating Degree Days 48    
Moisture  
Dew Point 13 °F    
Average Humidity 83    
Maximum Humidity 93    
Minimum Humidity 79    
Precipitation  
Precipitation 0.00 in - - ()
Sea Level Pressure  
Sea Level Pressure 30.40 in    
Wind  
Wind Speed 11 mph (NW)    
Max Wind Speed 16 mph    
Max Gust Speed 21 mph    
Visibility 10 miles    
Events Snow    
Averages and records for this station are not official NWS values.
T = Trace of Precipitation, MM = Missing Value Source: NWS Daily Summary

Daily Weather History Graph

Daily Weather History Graph

Search for Another Location

Airport or City:

Trip Planner

Search our weather history database for the weather conditions in past years. The results will help you decide how hot, cold, wet, or windy it might be!

Date:

Astronomy

Jan. 14, 2013 Rise Set
Actual Time 8:06 AM EST 5:41 PM EST
Civil Twilight 7:36 AM EST 6:11 PM EST
Nautical Twilight 7:02 AM EST 6:45 PM EST
Astronomical Twilight 6:29 AM EST 7:17 PM EST
Moon 9:38 AM EST (1/14) 9:27 PM EST (1/14)
Length of Visible Light 10h 34m
Length of Day
9h 34m
Waxing Crescent, 11% of the Moon is Illuminated
Jan 14
Waxing Crescent
Jan 18
First Quarter
Jan 26
Full
Feb 3
Last Quarter
Feb 10
New

Hourly Weather History & Observations

Time (EST) Temp. Windchill Dew Point Humidity Pressure Visibility Wind Dir Wind Speed Gust Speed Precip Events Conditions
12:26 AM 19.4 °F 5.0 °F 17.6 °F 93% 30.23 in 10.0 mi WNW 16.1 mph - N/A Snow Light Snow
12:40 AM 19.4 °F 5.0 °F 17.6 °F 93% 30.24 in 10.0 mi West 16.1 mph - N/A   Overcast
12:55 AM 19.4 °F 5.0 °F 16.7 °F 89% 30.25 in 10.0 mi West 16.1 mph - 0.00 in   Overcast
1:55 AM 19.2 °F 6.4 °F 16.5 °F 89% 30.28 in 10.0 mi WNW 12.7 mph - N/A   Overcast
1:56 AM 19.4 °F 7.9 °F 15.8 °F 86% 30.28 in 10.0 mi WNW 10.4 mph - N/A Snow Light Snow
2:06 AM 19.4 °F 6.0 °F 15.8 °F 86% 30.29 in 10.0 mi WNW 13.8 mph 20.7 mph N/A   Overcast
2:55 AM 18.1 °F 3.4 °F 15.1 °F 88% 30.31 in 10.0 mi WNW 16.1 mph - 0.00 in   Overcast
3:55 AM 16.5 °F 1.8 °F 12.7 °F 85% 30.34 in 10.0 mi WNW 15.0 mph - N/A   Mostly Cloudy
4:21 AM 15.8 °F 2.1 °F 12.2 °F 86% 30.34 in 10.0 mi WNW 12.7 mph - N/A   Mostly Cloudy
4:32 AM 15.8 °F 1.4 °F 12.2 °F 86% 30.35 in 10.0 mi WNW 13.8 mph - N/A   Scattered Clouds
4:55 AM 15.8 °F 2.1 °F 11.3 °F 82% 30.35 in 10.0 mi WNW 12.7 mph - N/A   Partly Cloudy
5:33 AM 15.8 °F 3.4 °F 12.2 °F 86% 30.36 in 10.0 mi NW 10.4 mph - N/A   Mostly Cloudy
5:55 AM 15.4 °F 3.0 °F 11.5 °F 84% 30.37 in 10.0 mi NW 10.4 mph - N/A   Overcast
6:04 AM 15.8 °F 2.1 °F 10.4 °F 79% 30.37 in 10.0 mi NW 12.7 mph - N/A   Overcast
6:15 AM 15.8 °F 4.2 °F 10.4 °F 79% 30.37 in 10.0 mi NW 9.2 mph - N/A   Scattered Clouds
6:23 AM 14.0 °F -0.2 °F 10.4 °F 86% 30.37 in 10.0 mi NW 12.7 mph - N/A   Mostly Cloudy
6:39 AM 15.8 °F 2.7 °F 10.4 °F 79% 30.37 in 10.0 mi NW 11.5 mph - N/A Snow Light Snow
6:44 AM 15.8 °F 1.4 °F 10.4 °F 79% 30.38 in 10.0 mi NW 13.8 mph - N/A   Mostly Cloudy
6:47 AM 15.8 °F 1.4 °F 10.4 °F 79% 30.38 in 10.0 mi NW 13.8 mph - N/A Snow Light Snow
6:49 AM 15.8 °F 2.1 °F 10.4 °F 79% 30.38 in 10.0 mi NW 12.7 mph - N/A   Overcast
6:51 AM 15.8 °F 2.1 °F 10.4 °F 79% 30.38 in 10.0 mi NW 12.7 mph - N/A Snow Light Snow
6:55 AM 15.1 °F 1.1 °F 11.1 °F 84% 30.38 in 10.0 mi NW 12.7 mph - 0.00 in Snow Light Snow
7:40 AM 15.8 °F 2.7 °F 10.4 °F 79% 30.41 in 10.0 mi NNW 11.5 mph - N/A   Mostly Cloudy
7:55 AM 14.4 °F 2.4 °F 9.7 °F 82% 30.42 in 10.0 mi NNW 9.2 mph - 0.00 in   Mostly Cloudy
8:17 AM 14.0 °F 2.9 °F 10.4 °F 86% 30.43 in 10.0 mi NNW 8.1 mph - N/A   Scattered Clouds
8:32 AM 14.0 °F 2.0 °F 10.4 °F 86% 30.43 in 10.0 mi NW 9.2 mph - N/A Snow Light Snow
8:55 AM 14.4 °F 4.3 °F 10.0 °F 83% 30.45 in 10.0 mi NNW 6.9 mph - 0.00 in   Scattered Clouds
9:35 AM 15.8 °F 8.6 °F 10.4 °F 79% 30.45 in 10.0 mi NNW 4.6 mph - N/A Snow Light Snow
9:55 AM 15.6 °F 5.9 °F 11.1 °F 82% 30.46 in 10.0 mi NNW 6.9 mph - 0.00 in   Scattered Clouds
9:58 AM 15.8 °F 4.2 °F 10.4 °F 79% 30.45 in 10.0 mi NNW 9.2 mph - N/A Snow Light Snow
10:03 AM 15.8 °F 6.1 °F 10.4 °F 79% 30.45 in 9.0 mi North 6.9 mph - N/A Snow Light Snow
10:18 AM 15.8 °F 6.1 °F 10.4 °F 79% 30.40 in 7.0 mi North 6.9 mph - N/A Snow Light Snow
10:30 AM 15.8 °F 6.1 °F 12.2 °F 86% 30.39 in 8.0 mi NNE 6.9 mph - N/A Snow Light Snow
10:55 AM 16.7 °F 8.3 °F 12.0 °F 82% 30.43 in 7.0 mi North 5.8 mph - 0.00 in Snow Light Snow
11:55 AM 18.7 °F 13.5 °F 14.0 °F 82% 30.43 in 10.0 mi NNE 3.5 mph - 0.00 in   Scattered Clouds
12:55 PM 19.4 °F 14.3 °F 13.8 °F 79% 30.45 in 10.0 mi NW 3.5 mph - N/A   Mostly Cloudy
1:55 PM 20.1 °F 15.2 °F 14.5 °F 79% 30.44 in 10.0 mi North 3.5 mph - N/A   Overcast
2:14 PM 21.2 °F - 15.8 °F 80% 30.44 in 10.0 mi Calm Calm - N/A   Overcast
2:25 PM 21.2 °F - 15.8 °F 80% 30.45 in 7.0 mi Calm Calm - N/A Snow Light Snow
2:54 PM 21.2 °F 14.9 °F 15.8 °F 80% 30.45 in 10.0 mi Variable 4.6 mph - N/A   Overcast
2:55 PM 20.8 °F 14.4 °F 15.4 °F 80% 30.45 in 10.0 mi Variable 4.6 mph - 0.00 in   Overcast
3:27 PM 21.2 °F 16.4 °F 15.8 °F 80% 30.48 in 10.0 mi NW 3.5 mph - N/A   Overcast
3:33 PM 21.2 °F 16.4 °F 15.8 °F 80% 30.48 in 10.0 mi West 3.5 mph - N/A   Overcast
3:35 PM 21.2 °F - 15.8 °F 80% 30.48 in 10.0 mi Calm Calm - N/A   Overcast
3:55 PM 20.8 °F - 15.3 °F 79% 30.49 in 10.0 mi Calm Calm - N/A   Overcast
4:55 PM 21.0 °F - 16.0 °F 81% 30.49 in 10.0 mi Calm Calm - N/A   Overcast
5:55 PM 20.7 °F 11.9 °F 16.0 °F 82% 30.46 in 10.0 mi NW 6.9 mph - N/A   Overcast
6:24 PM 19.4 °F 11.5 °F 15.8 °F 86% 30.47 in 10.0 mi NNW 5.8 mph - N/A   Scattered Clouds
6:55 PM 19.4 °F 11.5 °F 15.1 °F 83% 30.45 in 10.0 mi North 5.8 mph - N/A   Clear
7:55 PM 18.5 °F 9.3 °F 15.3 °F 87% 30.45 in 10.0 mi NNW 6.9 mph - N/A   Clear
8:55 PM 18.5 °F 13.3 °F 15.1 °F 86% 30.44 in 10.0 mi NW 3.5 mph - N/A   Clear
9:55 PM 18.3 °F 13.1 °F 15.3 °F 88% 30.44 in 10.0 mi NW 3.5 mph - N/A   Clear
10:55 PM 18.0 °F - 15.6 °F 91% 30.43 in 10.0 mi Calm Calm - N/A   Clear
11:55 PM 17.8 °F - 15.6 °F 91% 30.43 in 10.0 mi Calm Calm - N/A   Clear